Tracking 29069 objects as of 18-Jul-2024
HD Live streaming from Space Station
objects crossing your sky now

SL-12 R/B(2)

Track SL-12 R/B(2) now!


NORAD ID: 24897
Int'l Code: 1997-041D
Perigee: 34,364.0 km
Apogee: 37,379.9 km
Inclination: 14.4 °
Period: 1,440.1 minutes
Semi major axis: 42242 km
RCS: 1 m2 (large)
Launch date: August 14, 1997
Source: Commonwealth of Independent States (former USSR) (CIS)
Launch site: TYURATAM MISSILE AND SPACE COMPLEX (TTMTR)

Note: This is a ROCKET BODY
Your satellite tracking list
Your tracking list is empty




NASA's NSSDC Master Catalog

Two Line Element Set (TLE):
1 24897U 97041D   24199.54461608 -.00000033  00000-0  00000+0 0  9996
2 24897  14.4496   3.3603 0356965 284.1842  84.3109  0.99993401 98408
Source of the keplerian elements: AFSPC